| time (UTC) | temp C | wind direction | speed KPH | gust KPH | rain 1hr cm | rain 24hr cm | rain mn cm | humidity % | barometer mb |
| 20260508021550 | 18 | 89 | 6.4 | 12.9 | 0.00 | 0.03 | 0.00 | 39 | 1016.3 |
| 20260508020049 | 18 | 87 | 8.0 | 12.9 | 0.00 | 0.03 | 0.00 | 37 | 1016.4 |
| 20260508014559 | 18 | 93 | 9.7 | 14.5 | 0.00 | 0.03 | 0.00 | 38 | 1016.3 |
| 20260508013053 | 18 | 89 | 8.0 | 11.3 | 0.00 | 0.03 | 0.00 | 37 | 1016.5 |
| 20260508011554 | 18 | 76 | 8.0 | 11.3 | 0.00 | 0.03 | 0.00 | 36 | 1016.6 |
| 20260508010051 | 19 | 107 | 6.4 | 9.7 | 0.00 | 0.03 | 0.00 | 35 | 1016.9 |
| 20260508004550 | 19 | 102 | 6.4 | 11.3 | 0.00 | 0.03 | 0.00 | 34 | 1016.9 |
| 20260508003042 | 19 | 93 | 6.4 | 11.3 | 0.00 | 0.03 | 0.00 | 33 | 1016.9 |
| 20260508001554 | 19 | 96 | 6.4 | 11.3 | 0.00 | 0.03 | 0.00 | 33 | 1016.9 |
| 20260508000049 | 18 | 87 | 3.2 | 12.9 | 0.00 | 0.03 | 0.00 | 33 | 1017.0 |
| 20260507234555 | 18 | 93 | 8.0 | 14.5 | 0.00 | 0.03 | 0.00 | 32 | 1017.0 |
| 20260507233048 | 18 | 88 | 9.7 | 12.9 | 0.00 | 0.03 | 0.00 | 36 | 1017.1 |
| 20260507231502 | 18 | 93 | 9.7 | 14.5 | 0.00 | 0.03 | 0.00 | 36 | 1017.3 |
| 20260507230040 | 18 | 88 | 8.0 | 12.9 | 0.00 | 0.03 | 0.00 | 37 | 1017.7 |
| 20260507224556 | 19 | 86 | 8.0 | 12.9 | 0.00 | 0.03 | 0.00 | 39 | 1017.7 |
| 20260507223050 | 19 | 86 | 9.7 | 14.5 | 0.00 | 0.03 | 0.00 | 38 | 1017.7 |
| 20260507221547 | 19 | 90 | 8.0 | 11.3 | 0.00 | 0.03 | 0.00 | 37 | 1017.4 |
| 20260507220042 | 20 | 88 | 6.4 | 9.7 | 0.00 | 0.03 | 0.00 | 35 | 1017.5 |
| 20260507214557 | 20 | 80 | 4.8 | 6.4 | 0.00 | 0.03 | 0.00 | 33 | 1017.6 |
| 20260507213154 | 19 | 89 | 4.8 | 9.7 | 0.00 | 0.03 | 0.00 | 34 | 1017.6 |
| 20260507211550 | 19 | 86 | 3.2 | 6.4 | 0.00 | 0.03 | 0.00 | 36 | 1017.7 |
| 20260507210055 | 19 | 84 | 4.8 | 8.0 | 0.00 | 0.03 | 0.03 | 38 | 1017.6 |
| 20260507204540 | 20 | 86 | 3.2 | 6.4 | 0.00 | 0.03 | 0.03 | 46 | 1017.6 |
| 20260507203107 | 19 | 79 | 3.2 | 8.0 | 0.00 | 0.03 | 0.03 | 46 | 1017.4 |
| 20260507201543 | 19 | 94 | 6.4 | 9.7 | 0.00 | 0.03 | 0.03 | 42 | 1017.6 |
| 20260507200037 | 19 | 9 | 1.6 | 6.4 | 0.00 | 0.03 | 0.03 | 39 | 1017.6 |
| 20260507194617 | 19 | 9 | 0.0 | 0.0 | 0.00 | 0.03 | 0.03 | 41 | 1017.8 |
| 20260507193058 | 19 | 9 | 0.0 | 4.8 | 0.00 | 0.03 | 0.03 | 37 | 1017.8 |
| 20260507191548 | 18 | 9 | 1.6 | 6.4 | 0.00 | 0.03 | 0.03 | 47 | 1018.1 |
| 20260507190046 | 18 | 82 | 1.6 | 9.7 | 0.00 | 0.03 | 0.03 | 47 | 1017.8 |
| 20260507184543 | 18 | 89 | 4.8 | 9.7 | 0.00 | 0.03 | 0.03 | 47 | 1017.9 |
| 20260507183058 | 18 | 86 | 3.2 | 6.4 | 0.00 | 0.03 | 0.03 | 48 | 1017.8 |
| 20260507181549 | 18 | 86 | 3.2 | 6.4 | 0.00 | 0.03 | 0.03 | 50 | 1017.8 |
| 20260507180048 | 18 | 86 | 4.8 | 6.4 | 0.00 | 0.03 | 0.03 | 50 | 1017.7 |
| 20260507174549 | 18 | 86 | 3.2 | 6.4 | 0.00 | 0.03 | 0.03 | 53 | 1017.5 |
| 20260507173115 | 18 | 86 | 3.2 | 9.7 | 0.00 | 0.03 | 0.03 | 49 | 1017.6 |
| 20260507171543 | 18 | 82 | 8.0 | 12.9 | 0.00 | 0.03 | 0.03 | 54 | 1017.3 |
| 20260507170056 | 18 | 92 | 4.8 | 9.7 | 0.00 | 0.03 | 0.03 | 58 | 1017.3 |
| 20260507164551 | 18 | 92 | 6.4 | 9.7 | 0.00 | 0.03 | 0.03 | 56 | 1017.2 |
| 20260507163046 | 18 | 92 | 4.8 | 9.7 | 0.00 | 0.03 | 0.03 | 51 | 1017.3 |
| 20260507161549 | 18 | 92 | 3.2 | 6.4 | 0.00 | 0.03 | 0.03 | 50 | 1017.3 |
| 20260507160041 | 18 | 92 | 3.2 | 9.7 | 0.00 | 0.03 | 0.03 | 51 | 1017.2 |
| 20260507154554 | 18 | 109 | 8.0 | 12.9 | 0.00 | 0.03 | 0.03 | 50 | 1017.2 |
| 20260507153058 | 19 | 96 | 4.8 | 6.4 | 0.00 | 0.03 | 0.03 | 46 | 1017.4 |
| 20260507151546 | 20 | 96 | 3.2 | 4.8 | 0.00 | 0.03 | 0.03 | 40 | 1017.3 |
| 20260507150043 | 20 | 102 | 4.8 | 6.4 | 0.00 | 0.03 | 0.03 | 44 | 1017.1 |
| 20260507144543 | 20 | 93 | 3.2 | 4.8 | 0.00 | 0.03 | 0.03 | 42 | 1017.4 |
| 20260507143054 | 20 | 93 | 3.2 | 6.4 | 0.00 | 0.03 | 0.03 | 46 | 1017.2 |
| 20260507141559 | 19 | 111 | 3.2 | 6.4 | 0.00 | 0.03 | 0.03 | 57 | 1017.3 |
| 20260507140051 | 19 | 127 | 1.6 | 4.8 | 0.00 | 0.03 | 0.03 | 59 | 1017.8 |
| 20260507134553 | 20 | 129 | 4.8 | 11.3 | 0.00 | 0.03 | 0.03 | 56 | 1017.8 |
| 20260507133116 | 20 | 122 | 6.4 | 12.9 | 0.00 | 0.03 | 0.03 | 53 | 1017.1 |
| 20260507131546 | 20 | 111 | 8.0 | 11.3 | 0.00 | 0.03 | 0.03 | 44 | 1017.6 |
| 20260507130038 | 20 | 112 | 8.0 | 12.9 | 0.00 | 0.03 | 0.03 | 52 | 1017.6 |
| 20260507124653 | 20 | 109 | 8.0 | 12.9 | 0.00 | 0.03 | 0.03 | 53 | 1017.5 |
| 20260507123050 | 20 | 104 | 9.7 | 16.1 | 0.00 | 0.03 | 0.03 | 47 | 1017.9 |
| 20260507121544 | 20 | 111 | 11.3 | 17.7 | 0.00 | 0.03 | 0.03 | 54 | 1018.0 |
| 20260507120038 | 20 | 117 | 11.3 | 17.7 | 0.00 | 0.03 | 0.03 | 54 | 1017.8 |
| 20260507114610 | 18 | 114 | 11.3 | 16.1 | 0.00 | 0.03 | 0.03 | 58 | 1017.8 |
| 20260507113054 | 17 | 89 | 11.3 | 16.1 | 0.00 | 0.03 | 0.03 | 61 | 1017.8 |
| 20260507111608 | 17 | 98 | 9.7 | 16.1 | 0.00 | 0.03 | 0.03 | 62 | 1017.9 |
| 20260507110043 | 17 | 109 | 9.7 | 16.1 | 0.00 | 0.03 | 0.03 | 62 | 1017.8 |
| 20260507104543 | 17 | 111 | 12.9 | 16.1 | 0.00 | 0.03 | 0.03 | 65 | 1017.8 |
| 20260507103044 | 17 | 109 | 11.3 | 16.1 | 0.00 | 0.03 | 0.03 | 64 | 1018.0 |
| 20260507101554 | 17 | 128 | 8.0 | 12.9 | 0.00 | 0.03 | 0.03 | 66 | 1018.2 |
| 20260507100053 | 17 | 138 | 4.8 | 12.9 | 0.00 | 0.03 | 0.03 | 72 | 1018.3 |
| 20260507094557 | 17 | 134 | 9.7 | 14.5 | 0.00 | 0.03 | 0.03 | 72 | 1018.5 |
| 20260507093044 | 17 | 124 | 9.7 | 16.1 | 0.00 | 0.03 | 0.03 | 71 | 1018.6 |
| 20260507091542 | 17 | 142 | 9.7 | 19.3 | 0.00 | 0.03 | 0.03 | 70 | 1018.7 |
| 20260507090036 | 17 | 130 | 11.3 | 19.3 | 0.00 | 0.03 | 0.03 | 69 | 1018.5 |
| 20260507084557 | 17 | 101 | 12.9 | 19.3 | 0.00 | 0.03 | 0.03 | 68 | 1018.3 |
| 20260507083050 | 17 | 114 | 12.9 | 20.9 | 0.00 | 0.03 | 0.03 | 65 | 1018.2 |
| 20260507081547 | 17 | 121 | 12.9 | 19.3 | 0.00 | 0.03 | 0.03 | 64 | 1017.9 |
| 20260507080044 | 17 | 105 | 11.3 | 19.3 | 0.00 | 0.03 | 0.03 | 63 | 1017.9 |
| 20260507074549 | 16 | 115 | 11.3 | 17.7 | 0.00 | 0.03 | 0.03 | 63 | 1018.1 |
| 20260507073048 | 16 | 137 | 9.7 | 20.9 | 0.00 | 0.03 | 0.03 | 63 | 1017.7 |
| 20260507071556 | 17 | 113 | 12.9 | 24.1 | 0.00 | 0.03 | 0.03 | 62 | 1017.5 |
| 20260507070057 | 18 | 123 | 12.9 | 19.3 | 0.00 | 0.03 | 0.03 | 58 | 1017.3 |
| 20260507064557 | 18 | 87 | 9.7 | 19.3 | 0.00 | 0.03 | 0.03 | 56 | 1017.3 |
| 20260507063048 | 17 | 96 | 9.7 | 16.1 | 0.00 | 0.03 | 0.03 | 61 | 1017.3 |
| 20260507061541 | 17 | 97 | 6.4 | 9.7 | 0.00 | 0.03 | 0.03 | 60 | 1017.2 |
| 20260507060040 | 16 | 98 | 8.0 | 14.5 | 0.00 | 0.03 | 0.03 | 62 | 1017.3 |
| 20260507054558 | 17 | 104 | 6.4 | 9.7 | 0.00 | 0.03 | 0.03 | 59 | 1017.1 |
| 20260507053113 | 17 | 89 | 8.0 | 11.3 | 0.00 | 0.03 | 0.03 | 58 | 1017.1 |
| 20260507051550 | 16 | 278 | 1.6 | 3.2 | 0.00 | 0.03 | 0.03 | 61 | 1017.1 |
| 20260507050046 | 18 | 360 | 0.0 | 1.6 | 0.00 | 0.03 | 0.03 | 51 | 1017.0 |
| 20260507044558 | 16 | 360 | 0.0 | 6.4 | 0.00 | 0.03 | 0.03 | 56 | 1016.9 |
| 20260507043037 | 15 | 257 | 9.7 | 14.5 | 0.00 | 0.03 | 0.03 | 76 | 1016.9 |
| 20260507041555 | 15 | 251 | 4.8 | 8.0 | 0.00 | 0.03 | 0.03 | 78 | 1016.7 |
| 20260507040049 | 15 | 257 | 4.8 | 9.7 | 0.00 | 0.03 | 0.03 | 78 | 1016.5 |
| 20260507034548 | 15 | 247 | 6.4 | 11.3 | 0.00 | 0.03 | 0.03 | 78 | 1016.4 |
| 20260507033100 | 15 | 241 | 6.4 | 11.3 | 0.03 | 0.03 | 0.03 | 78 | 1016.3 |
| 20260507031554 | 15 | 241 | 0.0 | 0.0 | 0.03 | 0.03 | 0.03 | 78 | 1016.0 |
| 20260507030047 | 15 | 241 | 0.0 | 3.2 | 0.03 | 0.03 | 0.03 | 78 | 1015.6 |
| 20260507024613 | 14 | 241 | 1.6 | 4.8 | 0.03 | 0.03 | 0.03 | 78 | 1015.5 |
| 20260507023054 | 15 | 241 | 3.2 | 4.8 | 0.00 | 0.00 | 0.00 | 78 | 1015.6 |